Time,TemperatureF,DewpointF,PressureIn,WindDirection,WindDirectionDegrees,WindSpeedMPH,WindSpeedGustMPH,Humidity,HourlyPrecipIn,Conditions,Clouds,dailyrainin,SoftwareType,DateUTC
2013-12-31 00:04:00,9.0,9.0,30.46,WNW,292,5.0,11.0,100,0.00,,,0.00,Weather View 32 v70,2013-12-31 06:04:00,
2013-12-31 00:09:00,8.0,8.0,30.46,WNW,292,2.0,11.0,100,0.00,,,0.00,Weather View 32 v70,2013-12-31 06:09:00,
2013-12-31 00:14:00,8.0,8.0,30.46,WNW,292,0.0,10.0,100,0.00,,,0.00,Weather View 32 v70,2013-12-31 06:14:00,
2013-12-31 00:19:00,8.0,8.0,30.46,WNW,292,2.0,10.0,100,0.00,,,0.00,Weather View 32 v70,2013-12-31 06:19:00,
2013-12-31 00:24:00,7.0,7.0,30.46,WNW,292,0.0,10.0,100,0.00,,,0.00,Weather View 32 v70,2013-12-31 06:24:00,
2013-12-31 00:29:00,7.0,7.0,30.46,WNW,292,3.0,10.0,100,0.00,,,0.00,Weather View 32 v70,2013-12-31 06:29:00,
2013-12-31 00:34:00,7.0,7.0,30.46,WNW,292,0.0,10.0,100,0.00,,,0.00,Weather View 32 v70,2013-12-31 06:34:00,
2013-12-31 00:39:00,7.0,7.0,30.46,WNW,292,1.0,10.0,100,0.00,,,0.00,Weather View 32 v70,2013-12-31 06:39:00,
2013-12-31 00:44:00,6.0,6.0,30.48,West,270,0.0,10.0,100,0.00,,,0.00,Weather View 32 v70,2013-12-31 06:44:00,
2013-12-31 00:49:00,6.0,6.0,30.48,WNW,292,3.0,10.0,100,0.00,,,0.00,Weather View 32 v70,2013-12-31 06:49:00,
2013-12-31 00:54:00,6.0,6.0,30.48,WSW,247,4.0,10.0,100,0.00,,,0.00,Weather View 32 v70,2013-12-31 06:54:00,
2013-12-31 00:59:00,6.0,6.0,30.48,SW,225,0.0,10.0,100,0.00,,,0.00,Weather View 32 v70,2013-12-31 06:59:00,
2013-12-31 01:04:00,5.0,5.0,30.48,SW,225,1.0,6.0,100,0.00,,,0.00,Weather View 32 v70,2013-12-31 07:04:00,
2013-12-31 01:09:00,5.0,5.0,30.48,SW,225,0.0,6.0,100,0.00,,,0.00,Weather View 32 v70,2013-12-31 07:09:00,
2013-12-31 01:14:00,5.0,5.0,30.48,SW,225,3.0,6.0,100,0.00,,,0.00,Weather View 32 v70,2013-12-31 07:14:00,
2013-12-31 01:19:00,5.0,5.0,30.48,West,270,3.0,7.0,100,0.00,,,0.00,Weather View 32 v70,2013-12-31 07:19:00,
2013-12-31 01:24:00,5.0,5.0,30.49,West,270,0.0,7.0,100,0.00,,,0.00,Weather View 32 v70,2013-12-31 07:24:00,
2013-12-31 01:29:00,5.0,5.0,30.49,West,270,3.0,7.0,100,0.00,,,0.00,Weather View 32 v70,2013-12-31 07:29:00,
2013-12-31 01:34:00,5.0,5.0,30.50,WSW,247,0.0,7.0,100,0.00,,,0.00,Weather View 32 v70,2013-12-31 07:34:00,
2013-12-31 01:39:00,4.0,4.0,30.50,WSW,247,0.0,7.0,100,0.00,,,0.00,Weather View 32 v70,2013-12-31 07:39:00,
2013-12-31 01:44:00,4.0,4.0,30.49,WSW,247,0.0,7.0,100,0.00,,,0.00,Weather View 32 v70,2013-12-31 07:44:00,
2013-12-31 01:49:00,4.0,4.0,30.49,WSW,247,3.0,7.0,100,0.00,,,0.00,Weather View 32 v70,2013-12-31 07:49:00,
2013-12-31 01:54:00,4.0,4.0,30.47,ENE,67,4.0,8.0,100,0.00,,,0.00,Weather View 32 v70,2013-12-31 07:54:00,
2013-12-31 01:59:00,4.0,4.0,30.47,ENE,67,2.0,8.0,100,0.00,,,0.00,Weather View 32 v70,2013-12-31 07:59:00,
2013-12-31 02:04:00,4.0,4.0,30.47,ENE,67,0.0,8.0,100,0.00,,,0.00,Weather View 32 v70,2013-12-31 08:04:00,
2013-12-31 02:09:00,4.0,4.0,30.47,ENE,67,3.0,8.0,100,0.00,,,0.00,Weather View 32 v70,2013-12-31 08:09:00,
2013-12-31 02:14:00,4.0,4.0,30.46,ENE,67,1.0,8.0,100,0.00,,,0.00,Weather View 32 v70,2013-12-31 08:14:00,
2013-12-31 02:19:00,4.0,4.0,30.46,ENE,67,2.0,8.0,100,0.00,,,0.00,Weather View 32 v70,2013-12-31 08:19:00,
2013-12-31 02:24:00,5.0,5.0,30.47,SE,135,0.0,8.0,100,0.00,,,0.00,Weather View 32 v70,2013-12-31 08:24:00,
2013-12-31 02:29:00,5.0,5.0,30.47,SE,135,0.0,8.0,100,0.00,,,0.00,Weather View 32 v70,2013-12-31 08:29:00,
2013-12-31 02:34:00,5.0,5.0,30.47,SE,135,1.0,8.0,100,0.00,,,0.00,Weather View 32 v70,2013-12-31 08:34:00,
2013-12-31 02:39:00,5.0,5.0,30.47,SE,135,0.0,8.0,100,0.00,,,0.00,Weather View 32 v70,2013-12-31 08:39:00,
2013-12-31 02:44:00,6.0,6.0,30.47,SE,135,0.0,8.0,100,0.00,,,0.00,Weather View 32 v70,2013-12-31 08:44:00,
2013-12-31 02:49:00,6.0,6.0,30.47,North,360,7.0,8.0,100,0.00,,,0.00,Weather View 32 v70,2013-12-31 08:49:00,
2013-12-31 02:54:00,7.0,7.0,30.46,West,270,5.0,8.0,100,0.00,,,0.00,Weather View 32 v70,2013-12-31 08:54:00,
2013-12-31 02:59:00,8.0,8.0,30.46,SSW,202,3.0,8.0,100,0.00,,,0.00,Weather View 32 v70,2013-12-31 08:59:00,
2013-12-31 03:04:00,8.0,8.0,30.46,WSW,247,0.0,8.0,100,0.00,,,0.00,Weather View 32 v70,2013-12-31 09:04:00,
2013-12-31 03:09:00,8.0,8.0,30.46,WSW,247,0.0,8.0,100,0.00,,,0.00,Weather View 32 v70,2013-12-31 09:09:00,
2013-12-31 03:14:00,8.0,8.0,30.45,WSW,247,1.0,8.0,100,0.00,,,0.00,Weather View 32 v70,2013-12-31 09:14:00,
2013-12-31 03:19:00,8.0,8.0,30.45,WSW,247,4.0,8.0,100,0.00,,,0.00,Weather View 32 v70,2013-12-31 09:19:00,
2013-12-31 03:24:00,8.0,8.0,30.44,WSW,247,0.0,8.0,100,0.00,,,0.00,Weather View 32 v70,2013-12-31 09:24:00,
2013-12-31 03:29:00,8.0,8.0,30.44,WSW,247,0.0,8.0,100,0.00,,,0.00,Weather View 32 v70,2013-12-31 09:29:00,
2013-12-31 03:34:00,7.0,7.0,30.45,WSW,247,0.0,8.0,100,0.00,,,0.00,Weather View 32 v70,2013-12-31 09:34:00,
2013-12-31 03:39:00,7.0,7.0,30.45,WSW,247,1.0,8.0,100,0.00,,,0.00,Weather View 32 v70,2013-12-31 09:39:00,
2013-12-31 03:44:00,7.0,7.0,30.47,WSW,247,8.0,10.0,100,0.00,,,0.00,Weather View 32 v70,2013-12-31 09:44:00,
2013-12-31 03:49:00,7.0,7.0,30.47,WSW,247,8.0,11.0,100,0.00,,,0.00,Weather View 32 v70,2013-12-31 09:49:00,
2013-12-31 03:54:00,6.0,6.0,30.48,WSW,247,7.0,11.0,100,0.00,,,0.00,Weather View 32 v70,2013-12-31 09:54:00,
2013-12-31 03:59:00,6.0,6.0,30.48,SSW,202,3.0,11.0,100,0.00,,,0.00,Weather View 32 v70,2013-12-31 09:59:00,
2013-12-31 04:04:00,6.0,6.0,30.48,South,180,2.0,11.0,100,0.00,,,0.00,Weather View 32 v70,2013-12-31 10:04:00,
2013-12-31 04:09:00,6.0,6.0,30.48,SSW,202,1.0,11.0,100,0.00,,,0.00,Weather View 32 v70,2013-12-31 10:09:00,
2013-12-31 04:14:00,6.0,6.0,30.48,WSW,247,0.0,11.0,100,0.00,,,0.00,Weather View 32 v70,2013-12-31 10:14:00,
2013-12-31 04:19:00,5.0,5.0,30.48,WSW,247,0.0,11.0,100,0.00,,,0.00,Weather View 32 v70,2013-12-31 10:19:00,
2013-12-31 04:24:00,5.0,5.0,30.48,WSW,247,0.0,11.0,100,0.00,,,0.00,Weather View 32 v70,2013-12-31 10:24:00,
2013-12-31 04:29:00,5.0,5.0,30.48,WSW,247,0.0,11.0,100,0.00,,,0.00,Weather View 32 v70,2013-12-31 10:29:00,
2013-12-31 04:34:00,5.0,5.0,30.47,WSW,247,0.0,11.0,100,0.00,,,0.00,Weather View 32 v70,2013-12-31 10:34:00,
2013-12-31 04:39:00,4.0,4.0,30.47,WSW,247,0.0,11.0,100,0.00,,,0.00,Weather View 32 v70,2013-12-31 10:39:00,
2013-12-31 04:44:00,4.0,4.0,30.48,WSW,247,1.0,11.0,100,0.00,,,0.00,Weather View 32 v70,2013-12-31 10:44:00,
2013-12-31 04:49:00,4.0,4.0,30.48,WSW,247,0.0,11.0,100,0.00,,,0.00,Weather View 32 v70,2013-12-31 10:49:00,
2013-12-31 04:54:00,3.0,3.0,30.48,NNW,337,1.0,9.0,100,0.00,,,0.00,Weather View 32 v70,2013-12-31 10:54:00,
2013-12-31 04:59:00,4.0,4.0,30.48,NNW,337,0.0,6.0,100,0.00,,,0.00,Weather View 32 v70,2013-12-31 10:59:00,
2013-12-31 05:04:00,4.0,4.0,30.48,NNW,337,0.0,6.0,100,0.00,,,0.00,Weather View 32 v70,2013-12-31 11:04:00,
2013-12-31 05:09:00,4.0,4.0,30.48,NNW,337,0.0,6.0,100,0.00,,,0.00,Weather View 32 v70,2013-12-31 11:09:00,
2013-12-31 05:15:00,4.0,4.0,30.48,NNW,337,0.0,4.0,100,0.00,,,0.00,Weather View 32 v70,2013-12-31 11:15:00,
2013-12-31 05:20:00,4.0,4.0,30.48,NNW,337,0.0,4.0,100,0.00,,,0.00,Weather View 32 v70,2013-12-31 11:20:00,
2013-12-31 05:25:00,4.0,4.0,30.48,NNW,337,0.0,4.0,100,0.00,,,0.00,Weather View 32 v70,2013-12-31 11:25:00,
2013-12-31 05:30:00,3.0,3.0,30.48,NNW,337,0.0,4.0,100,0.00,,,0.00,Weather View 32 v70,2013-12-31 11:30:00,
2013-12-31 05:35:00,3.0,3.0,30.48,NNW,337,0.0,4.0,100,0.00,,,0.00,Weather View 32 v70,2013-12-31 11:35:00,
2013-12-31 05:40:00,3.0,3.0,30.48,NNW,337,0.0,4.0,100,0.00,,,0.00,Weather View 32 v70,2013-12-31 11:40:00,
2013-12-31 05:45:00,3.0,3.0,30.47,NNW,337,0.0,4.0,100,0.00,,,0.00,Weather View 32 v70,2013-12-31 11:45:00,
2013-12-31 05:50:00,3.0,3.0,30.47,NNW,337,0.0,4.0,100,0.00,,,0.00,Weather View 32 v70,2013-12-31 11:50:00,
2013-12-31 05:55:00,2.0,2.0,30.47,WNW,292,0.0,4.0,100,0.00,,,0.00,Weather View 32 v70,2013-12-31 11:55:00,
2013-12-31 06:00:00,2.0,2.0,30.47,WNW,292,0.0,4.0,100,0.00,,,0.00,Weather View 32 v70,2013-12-31 12:00:00,
2013-12-31 06:05:00,2.0,2.0,30.46,WNW,292,0.0,2.0,100,0.00,,,0.00,Weather View 32 v70,2013-12-31 12:05:00,
2013-12-31 06:10:00,2.0,2.0,30.46,WNW,292,0.0,2.0,100,0.00,,,0.00,Weather View 32 v70,2013-12-31 12:10:00,
2013-12-31 06:15:00,2.0,2.0,30.46,WNW,292,0.0,2.0,100,0.00,,,0.00,Weather View 32 v70,2013-12-31 12:15:00,
2013-12-31 06:20:00,1.0,1.0,30.46,WNW,292,0.0,2.0,100,0.00,,,0.00,Weather View 32 v70,2013-12-31 12:20:00,
2013-12-31 06:25:00,1.0,1.0,30.46,WNW,292,0.0,2.0,100,0.00,,,0.00,Weather View 32 v70,2013-12-31 12:25:00,
2013-12-31 06:30:00,1.0,1.0,30.46,WNW,292,0.0,2.0,100,0.00,,,0.00,Weather View 32 v70,2013-12-31 12:30:00,
2013-12-31 06:35:00,1.0,1.0,30.46,WNW,292,0.0,2.0,100,0.00,,,0.00,Weather View 32 v70,2013-12-31 12:35:00,
2013-12-31 06:40:00,1.0,1.0,30.46,WNW,292,0.0,3.0,100,0.00,,,0.00,Weather View 32 v70,2013-12-31 12:40:00,
2013-12-31 06:45:00,1.0,1.0,30.46,WNW,292,0.0,3.0,100,0.00,,,0.00,Weather View 32 v70,2013-12-31 12:45:00,
2013-12-31 06:50:00,1.0,1.0,30.46,WNW,292,0.0,3.0,100,0.00,,,0.00,Weather View 32 v70,2013-12-31 12:50:00,
2013-12-31 06:55:00,1.0,1.0,30.45,WNW,292,0.0,3.0,100,0.00,,,0.00,Weather View 32 v70,2013-12-31 12:55:00,
2013-12-31 07:00:00,1.0,1.0,30.45,WNW,292,0.0,3.0,100,0.00,,,0.00,Weather View 32 v70,2013-12-31 13:00:00,
2013-12-31 07:05:00,1.0,1.0,30.44,WNW,292,0.0,3.0,100,0.00,,,0.00,Weather View 32 v70,2013-12-31 13:05:00,
2013-12-31 07:10:00,1.0,1.0,30.44,WNW,292,0.0,3.0,100,0.00,,,0.00,Weather View 32 v70,2013-12-31 13:10:00,
2013-12-31 07:15:00,1.0,1.0,30.44,WNW,292,0.0,3.0,100,0.00,,,0.00,Weather View 32 v70,2013-12-31 13:15:00,
2013-12-31 07:20:00,1.0,1.0,30.44,WNW,292,0.0,3.0,100,0.00,,,0.00,Weather View 32 v70,2013-12-31 13:20:00,
2013-12-31 07:25:00,1.0,1.0,30.44,WNW,292,0.0,3.0,100,0.00,,,0.00,Weather View 32 v70,2013-12-31 13:25:00,
2013-12-31 07:30:00,1.0,1.0,30.44,WNW,292,0.0,3.0,100,0.00,,,0.00,Weather View 32 v70,2013-12-31 13:30:00,
2013-12-31 07:35:00,1.0,1.0,30.44,WNW,292,0.0,3.0,100,0.00,,,0.00,Weather View 32 v70,2013-12-31 13:35:00,
2013-12-31 07:40:00,1.0,1.0,30.44,WNW,292,0.0,2.0,100,0.00,,,0.00,Weather View 32 v70,2013-12-31 13:40:00,
2013-12-31 07:45:00,1.0,1.0,30.43,WNW,292,0.0,2.0,100,0.00,,,0.00,Weather View 32 v70,2013-12-31 13:45:00,
2013-12-31 07:50:00,1.0,1.0,30.43,WNW,292,0.0,2.0,100,0.00,,,0.00,Weather View 32 v70,2013-12-31 13:50:00,
2013-12-31 07:55:00,1.0,1.0,30.43,WNW,292,3.0,4.0,100,0.00,,,0.00,Weather View 32 v70,2013-12-31 13:55:00,
2013-12-31 08:00:00,2.0,2.0,30.43,WNW,292,3.0,4.0,100,0.00,,,0.00,Weather View 32 v70,2013-12-31 14:00:00,
2013-12-31 08:05:00,2.0,2.0,30.42,WNW,292,0.0,4.0,100,0.00,,,0.00,Weather View 32 v70,2013-12-31 14:05:00,
2013-12-31 08:10:00,2.0,2.0,30.42,WNW,292,0.0,4.0,100,0.00,,,0.00,Weather View 32 v70,2013-12-31 14:10:00,
2013-12-31 08:15:00,2.0,2.0,30.41,WNW,292,0.0,4.0,100,0.00,,,0.00,Weather View 32 v70,2013-12-31 14:15:00,
2013-12-31 08:20:00,3.0,3.0,30.41,WNW,292,0.0,4.0,100,0.00,,,0.00,Weather View 32 v70,2013-12-31 14:20:00,
2013-12-31 08:25:00,3.0,3.0,30.40,WNW,292,0.0,4.0,100,0.00,,,0.00,Weather View 32 v70,2013-12-31 14:25:00,
2013-12-31 08:30:00,4.0,4.0,30.40,WNW,292,0.0,4.0,100,0.00,,,0.00,Weather View 32 v70,2013-12-31 14:30:00,
2013-12-31 08:35:00,5.0,5.0,30.38,SSE,157,5.0,5.0,100,0.00,,,0.00,Weather View 32 v70,2013-12-31 14:35:00,
2013-12-31 08:40:00,7.0,7.0,30.38,ESE,112,6.0,8.0,100,0.00,,,0.00,Weather View 32 v70,2013-12-31 14:40:00,
2013-12-31 08:45:00,8.0,8.0,30.38,ESE,112,6.0,8.0,100,0.00,,,0.00,Weather View 32 v70,2013-12-31 14:45:00,
2013-12-31 08:50:00,8.0,8.0,30.38,ESE,112,4.0,8.0,100,0.00,,,0.00,Weather View 32 v70,2013-12-31 14:50:00,
2013-12-31 08:56:00,9.0,9.0,30.36,ESE,112,5.0,8.0,100,0.00,,,0.00,Weather View 32 v70,2013-12-31 14:56:00,
2013-12-31 09:01:00,9.0,9.0,30.36,ESE,112,3.0,8.0,100,0.00,,,0.00,Weather View 32 v70,2013-12-31 15:01:00,
2013-12-31 09:06:00,10.0,10.0,30.35,SE,135,4.0,8.0,100,0.00,,,0.00,Weather View 32 v70,2013-12-31 15:06:00,
2013-12-31 09:11:00,11.0,11.0,30.35,ESE,112,4.0,8.0,100,0.00,,,0.00,Weather View 32 v70,2013-12-31 15:11:00,
2013-12-31 09:16:00,12.0,12.0,30.34,ESE,112,5.0,8.0,100,0.00,,,0.00,Weather View 32 v70,2013-12-31 15:16:00,
2013-12-31 09:21:00,13.0,13.0,30.34,ESE,112,4.0,8.0,100,0.00,,,0.00,Weather View 32 v70,2013-12-31 15:21:00,
2013-12-31 09:26:00,13.0,12.5,30.31,ESE,112,6.0,12.0,98,0.00,,,0.00,Weather View 32 v70,2013-12-31 15:26:00,
2013-12-31 09:31:00,13.0,12.3,30.31,ESE,112,6.0,12.0,97,0.00,,,0.00,Weather View 32 v70,2013-12-31 15:31:00,
2013-12-31 09:36:00,13.0,12.1,30.30,ESE,112,6.0,14.0,96,0.00,,,0.00,Weather View 32 v70,2013-12-31 15:36:00,
2013-12-31 09:41:00,13.0,11.8,30.30,ESE,112,9.0,14.0,95,0.00,,,0.00,Weather View 32 v70,2013-12-31 15:41:00,
2013-12-31 09:46:00,14.0,12.8,30.31,ESE,112,5.0,14.0,95,0.00,,,0.00,Weather View 32 v70,2013-12-31 15:46:00,
2013-12-31 09:51:00,14.0,12.8,30.31,ESE,112,4.0,14.0,95,0.00,,,0.00,Weather View 32 v70,2013-12-31 15:51:00,
2013-12-31 09:56:00,14.0,12.6,30.32,SSE,157,2.0,14.0,94,0.00,,,0.00,Weather View 32 v70,2013-12-31 15:56:00,
2013-12-31 10:01:00,14.0,12.4,30.32,ESE,112,8.0,14.0,93,0.00,,,0.00,Weather View 32 v70,2013-12-31 16:01:00,
2013-12-31 10:06:00,15.0,13.3,30.31,East,90,6.0,14.0,93,0.00,,,0.00,Weather View 32 v70,2013-12-31 16:06:00,
2013-12-31 10:11:00,16.0,13.8,30.31,ESE,112,8.0,14.0,91,0.00,,,0.00,Weather View 32 v70,2013-12-31 16:11:00,
2013-12-31 10:16:00,17.0,14.1,30.30,East,90,6.0,14.0,88,0.00,,,0.00,Weather View 32 v70,2013-12-31 16:16:00,
2013-12-31 10:21:00,16.0,12.8,30.30,ESE,112,7.0,14.0,87,0.00,,,0.00,Weather View 32 v70,2013-12-31 16:21:00,
2013-12-31 10:26:00,16.0,13.1,30.28,ESE,112,4.0,14.0,88,0.00,,,0.00,Weather View 32 v70,2013-12-31 16:26:00,
2013-12-31 10:31:00,18.0,14.0,30.28,ESE,112,6.0,14.0,84,0.00,,,0.00,Weather View 32 v70,2013-12-31 16:31:00,
2013-12-31 10:36:00,18.0,13.2,30.28,East,90,8.0,12.0,81,0.00,,,0.00,Weather View 32 v70,2013-12-31 16:36:00,
2013-12-31 10:41:00,18.0,13.2,30.28,ESE,112,9.0,15.0,81,0.00,,,0.00,Weather View 32 v70,2013-12-31 16:41:00,
2013-12-31 10:46:00,18.0,12.9,30.25,ESE,112,10.0,15.0,80,0.00,,,0.00,Weather View 32 v70,2013-12-31 16:46:00,
2013-12-31 10:51:00,18.0,12.9,30.25,East,90,6.0,15.0,80,0.00,,,0.00,Weather View 32 v70,2013-12-31 16:51:00,
2013-12-31 10:56:00,19.0,13.3,30.25,ESE,112,7.0,15.0,78,0.00,,,0.00,Weather View 32 v70,2013-12-31 16:56:00,
2013-12-31 11:01:00,19.0,12.7,30.25,ESE,112,8.0,15.0,76,0.00,,,0.00,Weather View 32 v70,2013-12-31 17:01:00,
2013-12-31 11:06:00,19.0,13.3,30.23,ESE,112,6.0,15.0,78,0.00,,,0.00,Weather View 32 v70,2013-12-31 17:06:00,
2013-12-31 11:11:00,20.0,13.7,30.23,ESE,112,8.0,16.0,76,0.00,,,0.00,Weather View 32 v70,2013-12-31 17:11:00,
2013-12-31 11:16:00,21.0,14.0,30.22,ESE,112,6.0,16.0,74,0.00,,,0.00,Weather View 32 v70,2013-12-31 17:16:00,
2013-12-31 11:21:00,21.0,13.4,30.22,East,90,8.0,16.0,72,0.00,,,0.00,Weather View 32 v70,2013-12-31 17:21:00,
2013-12-31 11:26:00,21.0,13.4,30.22,East,90,7.0,16.0,72,0.00,,,0.00,Weather View 32 v70,2013-12-31 17:26:00,
2013-12-31 11:31:00,22.0,14.4,30.22,ESE,112,8.0,16.0,72,0.00,,,0.00,Weather View 32 v70,2013-12-31 17:31:00,
2013-12-31 11:36:00,22.0,13.7,30.21,SE,135,7.0,16.0,70,0.00,,,0.00,Weather View 32 v70,2013-12-31 17:36:00,
2013-12-31 11:41:00,23.0,14.3,30.21,East,90,10.0,16.0,69,0.00,,,0.00,Weather View 32 v70,2013-12-31 17:41:00,
2013-12-31 11:46:00,23.0,13.7,30.20,ESE,112,5.0,16.0,67,0.00,,,0.00,Weather View 32 v70,2013-12-31 17:46:00,
2013-12-31 11:51:00,24.0,14.3,30.20,East,90,9.0,16.0,66,0.00,,,0.00,Weather View 32 v70,2013-12-31 17:51:00,
2013-12-31 11:56:00,24.0,14.3,30.20,SE,135,4.0,16.0,66,0.00,,,0.00,Weather View 32 v70,2013-12-31 17:56:00,
2013-12-31 12:01:00,25.0,14.5,30.20,ESE,112,4.0,16.0,64,0.00,,,0.00,Weather View 32 v70,2013-12-31 18:01:00,
2013-12-31 12:06:00,25.0,14.2,30.19,SE,135,4.0,16.0,63,0.00,,,0.00,Weather View 32 v70,2013-12-31 18:06:00,
2013-12-31 12:11:00,26.0,15.1,30.19,ESE,112,6.0,13.0,63,0.00,,,0.00,Weather View 32 v70,2013-12-31 18:11:00,
2013-12-31 12:16:00,27.0,15.3,30.18,ESE,112,8.0,13.0,61,0.00,,,0.00,Weather View 32 v70,2013-12-31 18:16:00,
2013-12-31 12:21:00,26.0,15.1,30.18,ESE,112,10.0,13.0,63,0.00,,,0.00,Weather View 32 v70,2013-12-31 18:21:00,
2013-12-31 12:26:00,27.0,15.7,30.16,South,180,4.0,13.0,62,0.00,,,0.00,Weather View 32 v70,2013-12-31 18:26:00,
2013-12-31 12:31:00,28.0,15.5,30.16,SE,135,10.0,13.0,59,0.00,,,0.00,Weather View 32 v70,2013-12-31 18:31:00,
2013-12-31 12:36:00,28.0,16.3,30.16,ESE,112,6.0,13.0,61,0.00,,,0.00,Weather View 32 v70,2013-12-31 18:36:00,
2013-12-31 12:41:00,27.0,15.7,30.16,ESE,112,9.0,13.0,62,0.00,,,0.00,Weather View 32 v70,2013-12-31 18:41:00,
2013-12-31 12:46:00,27.0,15.7,30.14,East,90,6.0,13.0,62,0.00,,,0.00,Weather View 32 v70,2013-12-31 18:46:00,
2013-12-31 12:51:00,27.0,15.7,30.14,ESE,112,6.0,13.0,62,0.00,,,0.00,Weather View 32 v70,2013-12-31 18:51:00,
2013-12-31 12:56:00,28.0,16.3,30.14,East,90,10.0,13.0,61,0.00,,,0.00,Weather View 32 v70,2013-12-31 18:56:00,
2013-12-31 13:01:00,28.0,16.7,30.14,SSE,157,6.0,15.0,62,0.00,,,0.00,Weather View 32 v70,2013-12-31 19:01:00,
2013-12-31 13:06:00,29.0,16.8,30.14,ESE,112,8.0,15.0,60,0.00,,,0.00,Weather View 32 v70,2013-12-31 19:06:00,
2013-12-31 13:11:00,29.0,16.8,30.14,NE,45,3.0,15.0,60,0.00,,,0.00,Weather View 32 v70,2013-12-31 19:11:00,
2013-12-31 13:16:00,30.0,17.0,30.14,ESE,112,5.0,15.0,58,0.00,,,0.00,Weather View 32 v70,2013-12-31 19:16:00,
2013-12-31 13:21:00,31.0,19.1,30.14,ENE,67,0.0,15.0,61,0.00,,,0.00,Weather View 32 v70,2013-12-31 19:21:00,
2013-12-31 13:26:00,32.0,18.9,30.14,NNE,22,6.0,15.0,58,0.00,,,0.00,Weather View 32 v70,2013-12-31 19:26:00,
2013-12-31 13:31:00,31.0,17.5,30.14,ENE,67,5.0,15.0,57,0.00,,,0.00,Weather View 32 v70,2013-12-31 19:31:00,
2013-12-31 13:36:00,31.0,17.1,30.12,ESE,112,7.0,15.0,56,0.00,,,0.00,Weather View 32 v70,2013-12-31 19:36:00,
2013-12-31 13:41:00,31.0,16.7,30.12,NNE,22,9.0,15.0,55,0.00,,,0.00,Weather View 32 v70,2013-12-31 19:41:00,
2013-12-31 13:46:00,31.0,16.7,30.12,NNE,22,10.0,15.0,55,0.00,,,0.00,Weather View 32 v70,2013-12-31 19:46:00,
2013-12-31 13:51:00,31.0,16.7,30.12,NNE,22,6.0,15.0,55,0.00,,,0.00,Weather View 32 v70,2013-12-31 19:51:00,
2013-12-31 13:56:00,31.0,16.7,30.12,SE,135,6.0,15.0,55,0.00,,,0.00,Weather View 32 v70,2013-12-31 19:56:00,
2013-12-31 14:01:00,31.0,16.7,30.12,East,90,3.0,13.0,55,0.00,,,0.00,Weather View 32 v70,2013-12-31 20:01:00,
2013-12-31 14:06:00,31.0,17.1,30.11,ESE,112,4.0,13.0,56,0.00,,,0.00,Weather View 32 v70,2013-12-31 20:06:00,
2013-12-31 14:11:00,31.0,17.1,30.11,ENE,67,7.0,13.0,56,0.00,,,0.00,Weather View 32 v70,2013-12-31 20:11:00,
2013-12-31 14:16:00,32.0,18.5,30.11,ESE,112,5.0,13.0,57,0.00,,,0.00,Weather View 32 v70,2013-12-31 20:16:00,
2013-12-31 14:21:00,32.0,17.6,30.11,NE,45,7.0,13.0,55,0.00,,,0.00,Weather View 32 v70,2013-12-31 20:21:00,
2013-12-31 14:26:00,31.0,16.7,30.11,ENE,67,8.0,13.0,55,0.00,,,0.00,Weather View 32 v70,2013-12-31 20:26:00,
2013-12-31 14:31:00,32.0,18.1,30.11,ENE,67,7.0,13.0,56,0.00,,,0.00,Weather View 32 v70,2013-12-31 20:31:00,
2013-12-31 14:36:00,32.0,17.6,30.11,ENE,67,6.0,13.0,55,0.00,,,0.00,Weather View 32 v70,2013-12-31 20:36:00,
2013-12-31 14:41:00,32.0,17.6,30.11,ESE,112,5.0,13.0,55,0.00,,,0.00,Weather View 32 v70,2013-12-31 20:41:00,
2013-12-31 14:46:00,32.0,17.6,30.11,ENE,67,8.0,13.0,55,0.00,,,0.00,Weather View 32 v70,2013-12-31 20:46:00,
2013-12-31 14:51:00,32.0,17.6,30.11,NE,45,10.0,11.0,55,0.00,,,0.00,Weather View 32 v70,2013-12-31 20:51:00,
2013-12-31 14:56:00,32.0,17.2,30.11,NE,45,12.0,12.0,54,0.00,,,0.00,Weather View 32 v70,2013-12-31 20:56:00,
2013-12-31 15:01:00,32.0,17.6,30.11,NE,45,7.0,13.0,55,0.00,,,0.00,Weather View 32 v70,2013-12-31 21:01:00,
2013-12-31 15:06:00,32.0,17.6,30.12,NNE,22,11.0,13.0,55,0.00,,,0.00,Weather View 32 v70,2013-12-31 21:06:00,
2013-12-31 15:11:00,32.0,17.6,30.12,NE,45,14.0,14.0,55,0.00,,,0.00,Weather View 32 v70,2013-12-31 21:11:00,
2013-12-31 15:16:00,32.0,18.1,30.14,NE,45,9.0,17.0,56,0.00,,,0.00,Weather View 32 v70,2013-12-31 21:16:00,
2013-12-31 15:21:00,31.0,17.1,30.14,NE,45,11.0,17.0,56,0.00,,,0.00,Weather View 32 v70,2013-12-31 21:21:00,
2013-12-31 15:26:00,32.0,18.5,30.15,NE,45,12.0,17.0,57,0.00,,,0.00,Weather View 32 v70,2013-12-31 21:26:00,
2013-12-31 15:31:00,31.0,17.5,30.15,NNE,22,6.0,17.0,57,0.00,,,0.00,Weather View 32 v70,2013-12-31 21:31:00,
2013-12-31 15:36:00,31.0,17.5,30.15,North,360,10.0,18.0,57,0.00,,,0.00,Weather View 32 v70,2013-12-31 21:36:00,
2013-12-31 15:41:00,31.0,17.9,30.15,NNE,22,10.0,18.0,58,0.00,,,0.00,Weather View 32 v70,2013-12-31 21:41:00,
2013-12-31 15:46:00,29.0,14.0,30.16,NE,45,14.0,23.0,53,0.00,,,0.00,Weather View 32 v70,2013-12-31 21:46:00,
2013-12-31 15:51:00,26.0,13.6,30.16,NE,45,21.0,24.0,59,0.00,,,0.00,Weather View 32 v70,2013-12-31 21:51:00,
2013-12-31 15:56:00,24.0,12.5,30.18,NNE,22,19.0,24.0,61,0.00,,,0.00,Weather View 32 v70,2013-12-31 21:56:00,
2013-12-31 16:01:00,22.0,11.0,30.22,NNE,22,18.0,24.0,62,0.00,,,0.00,Weather View 32 v70,2013-12-31 22:01:00,
2013-12-31 16:06:00,21.0,11.1,30.22,NE,45,13.0,24.0,65,0.00,,,0.00,Weather View 32 v70,2013-12-31 22:06:00,
2013-12-31 16:11:00,20.0,11.1,30.26,NNE,22,7.0,24.0,68,0.00,,,0.00,Weather View 32 v70,2013-12-31 22:11:00,
2013-12-31 16:16:00,19.0,10.5,30.26,NNE,22,14.0,27.0,69,0.00,,,0.00,Weather View 32 v70,2013-12-31 22:16:00,
2013-12-31 16:21:00,18.0,10.5,30.26,NNE,22,17.0,27.0,72,0.00,,,0.00,Weather View 32 v70,2013-12-31 22:21:00,
2013-12-31 16:27:00,17.0,10.1,30.26,NNE,22,19.0,27.0,74,0.00,,,0.00,Weather View 32 v70,2013-12-31 22:27:00,
2013-12-31 16:32:00,17.0,10.1,30.28,NNE,22,14.0,27.0,74,0.00,,,0.00,Weather View 32 v70,2013-12-31 22:32:00,
2013-12-31 16:37:00,16.0,10.1,30.28,NNE,22,16.0,27.0,77,0.00,,,0.00,Weather View 32 v70,2013-12-31 22:37:00,
2013-12-31 16:42:00,16.0,10.1,30.29,NNE,22,15.0,27.0,77,0.00,,,0.00,Weather View 32 v70,2013-12-31 22:42:00,
2013-12-31 16:47:00,15.0,9.7,30.29,NNE,22,24.0,27.0,79,0.00,,,0.00,Weather View 32 v70,2013-12-31 22:47:00,
2013-12-31 16:52:00,15.0,10.0,30.31,NNE,22,25.0,27.0,80,0.00,,,0.00,Weather View 32 v70,2013-12-31 22:52:00,
2013-12-31 16:57:00,14.0,9.3,30.31,NNE,22,13.0,27.0,81,0.00,,,0.00,Weather View 32 v70,2013-12-31 22:57:00,
2013-12-31 17:02:00,14.0,9.3,30.32,NNE,22,22.0,27.0,81,0.00,,,0.00,Weather View 32 v70,2013-12-31 23:02:00,
2013-12-31 17:07:00,14.0,9.5,30.32,NE,45,16.0,27.0,82,0.00,,,0.00,Weather View 32 v70,2013-12-31 23:07:00,
2013-12-31 17:12:00,13.0,8.8,30.32,NE,45,22.0,27.0,83,0.00,,,0.00,Weather View 32 v70,2013-12-31 23:12:00,
2013-12-31 17:17:00,13.0,9.1,30.32,NNE,22,9.0,27.0,84,0.00,,,0.00,Weather View 32 v70,2013-12-31 23:17:00,
2013-12-31 17:22:00,13.0,9.1,30.32,NE,45,20.0,27.0,84,0.00,,,0.00,Weather View 32 v70,2013-12-31 23:22:00,
2013-12-31 17:27:00,13.0,9.3,30.32,ENE,67,16.0,27.0,85,0.00,,,0.00,Weather View 32 v70,2013-12-31 23:27:00,
2013-12-31 17:32:00,13.0,9.3,30.33,NNE,22,12.0,27.0,85,0.00,,,0.00,Weather View 32 v70,2013-12-31 23:32:00,
2013-12-31 17:37:00,13.0,9.3,30.33,NE,45,19.0,27.0,85,0.00,,,0.00,Weather View 32 v70,2013-12-31 23:37:00,
2013-12-31 17:42:00,13.0,9.3,30.33,NE,45,20.0,27.0,85,0.00,,,0.00,Weather View 32 v70,2013-12-31 23:42:00,
2013-12-31 17:47:00,13.0,9.3,30.33,NNE,22,14.0,27.0,85,0.00,,,0.00,Weather View 32 v70,2013-12-31 23:47:00,
2013-12-31 17:52:00,13.0,9.3,30.34,NE,45,12.0,27.0,85,0.00,,,0.00,Weather View 32 v70,2013-12-31 23:52:00,
2013-12-31 17:57:00,13.0,9.3,30.34,ENE,67,13.0,27.0,85,0.00,,,0.00,Weather View 32 v70,2013-12-31 23:57:00,
2013-12-31 18:02:00,13.0,9.1,30.34,NNE,22,16.0,27.0,84,0.00,,,0.00,Weather View 32 v70,2014-01-01 00:02:00,
2013-12-31 18:07:00,12.0,8.4,30.34,NNE,22,10.0,27.0,85,0.00,,,0.00,Weather View 32 v70,2014-01-01 00:07:00,
2013-12-31 18:12:00,12.0,8.1,30.34,NE,45,18.0,24.0,84,0.00,,,0.00,Weather View 32 v70,2014-01-01 00:12:00,
2013-12-31 18:17:00,12.0,8.4,30.34,NE,45,14.0,24.0,85,0.00,,,0.00,Weather View 32 v70,2014-01-01 00:17:00,
2013-12-31 18:22:00,12.0,8.1,30.34,ENE,67,6.0,26.0,84,0.00,,,0.00,Weather View 32 v70,2014-01-01 00:22:00,
2013-12-31 18:27:00,12.0,8.4,30.34,NE,45,13.0,26.0,85,0.00,,,0.00,Weather View 32 v70,2014-01-01 00:27:00,
2013-12-31 18:32:00,12.0,8.4,30.34,NE,45,14.0,26.0,85,0.00,,,0.00,Weather View 32 v70,2014-01-01 00:32:00,
2013-12-31 18:37:00,12.0,8.4,30.34,NNE,22,11.0,26.0,85,0.00,,,0.00,Weather View 32 v70,2014-01-01 00:37:00,
2013-12-31 18:42:00,12.0,8.4,30.35,NE,45,13.0,26.0,85,0.00,,,0.00,Weather View 32 v70,2014-01-01 00:42:00,
2013-12-31 18:47:00,11.0,7.6,30.35,NE,45,15.0,26.0,86,0.00,,,0.00,Weather View 32 v70,2014-01-01 00:47:00,
2013-12-31 18:52:00,11.0,7.6,30.36,NNE,22,9.0,26.0,86,0.00,,,0.00,Weather View 32 v70,2014-01-01 00:52:00,
2013-12-31 18:57:00,11.0,8.1,30.36,NNE,22,16.0,26.0,88,0.00,,,0.00,Weather View 32 v70,2014-01-01 00:57:00,
2013-12-31 19:03:00,11.0,8.1,30.36,NNE,22,7.0,26.0,88,0.00,,,0.00,Weather View 32 v70,2014-01-01 01:03:00,
2013-12-31 19:08:00,11.0,8.1,30.36,NE,45,11.0,26.0,88,0.00,,,0.00,Weather View 32 v70,2014-01-01 01:08:00,
2013-12-31 19:13:00,11.0,8.4,30.36,NE,45,10.0,26.0,89,0.00,,,0.00,Weather View 32 v70,2014-01-01 01:13:00,
2013-12-31 19:18:00,10.0,7.7,30.36,NE,45,13.0,26.0,90,0.00,,,0.00,Weather View 32 v70,2014-01-01 01:18:00,
2013-12-31 19:23:00,10.0,7.7,30.36,NNE,22,13.0,23.0,90,0.00,,,0.00,Weather View 32 v70,2014-01-01 01:23:00,
2013-12-31 19:28:00,10.0,7.7,30.36,NNE,22,12.0,23.0,90,0.00,,,0.00,Weather View 32 v70,2014-01-01 01:28:00,
2013-12-31 19:33:00,10.0,7.9,30.36,NE,45,11.0,21.0,91,0.00,,,0.00,Weather View 32 v70,2014-01-01 01:33:00,
2013-12-31 19:38:00,10.0,8.1,30.36,NNE,22,10.0,20.0,92,0.00,,,0.00,Weather View 32 v70,2014-01-01 01:38:00,
2013-12-31 19:43:00,10.0,8.1,30.38,NE,45,10.0,20.0,92,0.00,,,0.00,Weather View 32 v70,2014-01-01 01:43:00,
2013-12-31 19:48:00,10.0,8.4,30.38,NNE,22,8.0,20.0,93,0.00,,,0.00,Weather View 32 v70,2014-01-01 01:48:00,
2013-12-31 19:53:00,10.0,8.1,30.39,NNE,22,10.0,20.0,92,0.00,,,0.00,Weather View 32 v70,2014-01-01 01:53:00,
2013-12-31 19:58:00,9.0,7.4,30.39,NNE,22,13.0,20.0,93,0.00,,,0.00,Weather View 32 v70,2014-01-01 01:58:00,
2013-12-31 20:03:00,9.0,7.4,30.39,NE,45,7.0,20.0,93,0.00,,,0.00,Weather View 32 v70,2014-01-01 02:03:00,
2013-12-31 20:08:00,9.0,7.4,30.39,NNE,22,11.0,20.0,93,0.00,,,0.00,Weather View 32 v70,2014-01-01 02:08:00,
2013-12-31 20:13:00,9.0,7.4,30.39,NE,45,12.0,20.0,93,0.00,,,0.00,Weather View 32 v70,2014-01-01 02:13:00,
2013-12-31 20:18:00,9.0,7.4,30.39,NNE,22,13.0,20.0,93,0.00,,,0.00,Weather View 32 v70,2014-01-01 02:18:00,
2013-12-31 20:23:00,9.0,7.4,30.38,NE,45,9.0,20.0,93,0.00,,,0.00,Weather View 32 v70,2014-01-01 02:23:00,
2013-12-31 20:28:00,9.0,7.4,30.38,NE,45,8.0,18.0,93,0.00,,,0.00,Weather View 32 v70,2014-01-01 02:28:00,
2013-12-31 20:33:00,9.0,7.4,30.38,NNE,22,13.0,18.0,93,0.00,,,0.00,Weather View 32 v70,2014-01-01 02:33:00,
2013-12-31 20:38:00,9.0,7.6,30.38,NNE,22,11.0,18.0,94,0.00,,,0.00,Weather View 32 v70,2014-01-01 02:38:00,
2013-12-31 20:43:00,9.0,7.4,30.39,NNE,22,8.0,18.0,93,0.00,,,0.00,Weather View 32 v70,2014-01-01 02:43:00,
2013-12-31 20:48:00,9.0,7.6,30.39,NNE,22,10.0,18.0,94,0.00,,,0.00,Weather View 32 v70,2014-01-01 02:48:00,
2013-12-31 20:53:00,9.0,7.6,30.39,NNE,22,5.0,18.0,94,0.00,,,0.00,Weather View 32 v70,2014-01-01 02:53:00,
2013-12-31 20:58:00,9.0,7.6,30.39,NNE,22,10.0,18.0,94,0.00,,,0.00,Weather View 32 v70,2014-01-01 02:58:00,
2013-12-31 21:03:00,9.0,7.6,30.40,NNE,22,8.0,18.0,94,0.00,,,0.00,Weather View 32 v70,2014-01-01 03:03:00,
2013-12-31 21:08:00,9.0,7.6,30.40,NNE,22,12.0,18.0,94,0.00,,,0.00,Weather View 32 v70,2014-01-01 03:08:00,
2013-12-31 21:13:00,8.0,7.1,30.40,NNE,22,7.0,18.0,96,0.00,,,0.00,Weather View 32 v70,2014-01-01 03:13:00,
2013-12-31 21:18:00,8.0,7.1,30.40,NE,45,9.0,18.0,96,0.00,,,0.00,Weather View 32 v70,2014-01-01 03:18:00,
2013-12-31 21:23:00,8.0,7.1,30.39,NE,45,7.0,18.0,96,0.00,,,0.00,Weather View 32 v70,2014-01-01 03:23:00,
2013-12-31 21:29:00,8.0,7.1,30.39,NNE,22,17.0,19.0,96,0.00,,,0.00,Weather View 32 v70,2014-01-01 03:29:00,
2013-12-31 21:34:00,8.0,7.1,30.39,NE,45,18.0,19.0,96,0.00,,,0.00,Weather View 32 v70,2014-01-01 03:34:00,
2013-12-31 21:39:00,8.0,7.3,30.39,NNE,22,6.0,19.0,97,0.00,,,0.00,Weather View 32 v70,2014-01-01 03:39:00,
2013-12-31 21:44:00,8.0,7.3,30.39,NNE,22,9.0,19.0,97,0.00,,,0.00,Weather View 32 v70,2014-01-01 03:44:00,
2013-12-31 21:49:00,8.0,7.3,30.39,NNE,22,9.0,19.0,97,0.00,,,0.00,Weather View 32 v70,2014-01-01 03:49:00,
2013-12-31 21:54:00,8.0,7.3,30.39,NE,45,8.0,19.0,97,0.00,,,0.00,Weather View 32 v70,2014-01-01 03:54:00,
2013-12-31 21:59:00,8.0,7.3,30.39,NNE,22,13.0,19.0,97,0.00,,,0.00,Weather View 32 v70,2014-01-01 03:59:00,
2013-12-31 22:04:00,8.0,7.3,30.39,NE,45,12.0,19.0,97,0.00,,,0.00,Weather View 32 v70,2014-01-01 04:04:00,
2013-12-31 22:09:00,8.0,7.6,30.39,NE,45,9.0,19.0,98,0.00,,,0.00,Weather View 32 v70,2014-01-01 04:09:00,
2013-12-31 22:14:00,8.0,7.6,30.39,NE,45,9.0,19.0,98,0.00,,,0.00,Weather View 32 v70,2014-01-01 04:14:00,
2013-12-31 22:19:00,8.0,7.6,30.39,ENE,67,4.0,19.0,98,0.00,,,0.00,Weather View 32 v70,2014-01-01 04:19:00,
2013-12-31 22:24:00,8.0,7.6,30.38,ENE,67,6.0,19.0,98,0.00,,,0.00,Weather View 32 v70,2014-01-01 04:24:00,
2013-12-31 22:29:00,8.0,7.6,30.38,NE,45,3.0,19.0,98,0.00,,,0.00,Weather View 32 v70,2014-01-01 04:29:00,
2013-12-31 22:34:00,8.0,7.6,30.38,NE,45,10.0,18.0,98,0.00,,,0.00,Weather View 32 v70,2014-01-01 04:34:00,
2013-12-31 22:39:00,7.0,6.6,30.38,NNE,22,4.0,17.0,98,0.00,,,0.00,Weather View 32 v70,2014-01-01 04:39:00,
2013-12-31 22:44:00,7.0,6.6,30.39,NNE,22,10.0,17.0,98,0.00,,,0.00,Weather View 32 v70,2014-01-01 04:44:00,
2013-12-31 22:49:00,7.0,6.6,30.39,NE,45,8.0,17.0,98,0.00,,,0.00,Weather View 32 v70,2014-01-01 04:49:00,
2013-12-31 22:54:00,7.0,6.8,30.40,NNE,22,9.0,17.0,99,0.00,,,0.00,Weather View 32 v70,2014-01-01 04:54:00,
2013-12-31 22:59:00,7.0,6.8,30.40,NNE,22,5.0,17.0,99,0.00,,,0.00,Weather View 32 v70,2014-01-01 04:59:00,
2013-12-31 23:01:00,7.0,6.8,30.40,NE,45,8.0,17.0,99,0.00,,,0.00,Weather View 32 v70,2014-01-01 05:01:00,
2013-12-31 23:02:00,7.0,6.8,30.39,NNE,22,8.0,16.0,99,0.00,,,0.00,Weather View 32 v70,2014-01-01 05:02:00,
2013-12-31 23:07:00,7.0,6.8,30.39,ENE,67,7.0,15.0,99,0.00,,,0.00,Weather View 32 v70,2014-01-01 05:07:00,
2013-12-31 23:12:00,7.0,6.6,30.38,NE,45,6.0,16.0,98,0.00,,,0.00,Weather View 32 v70,2014-01-01 05:12:00,
2013-12-31 23:17:00,7.0,6.8,30.38,ENE,67,3.0,16.0,99,0.00,,,0.00,Weather View 32 v70,2014-01-01 05:17:00,
2013-12-31 23:22:00,8.0,7.6,30.38,NE,45,10.0,16.0,98,0.00,,,0.00,Weather View 32 v70,2014-01-01 05:22:00,
2013-12-31 23:27:00,7.0,6.8,30.38,NNE,22,12.0,16.0,99,0.00,,,0.00,Weather View 32 v70,2014-01-01 05:27:00,
2013-12-31 23:32:00,7.0,6.6,30.38,ENE,67,8.0,18.0,98,0.00,,,0.00,Weather View 32 v70,2014-01-01 05:32:00,
2013-12-31 23:37:00,7.0,6.6,30.38,ENE,67,12.0,18.0,98,0.00,,,0.00,Weather View 32 v70,2014-01-01 05:37:00,
2013-12-31 23:41:00,7.0,6.6,30.38,NE,45,10.0,18.0,98,0.00,,,0.00,Weather View 32 v70,2014-01-01 05:41:00,
2013-12-31 23:46:00,7.0,6.8,30.38,NE,45,10.0,18.0,99,0.00,,,0.00,Weather View 32 v70,2014-01-01 05:46:00,
2013-12-31 23:51:00,7.0,6.8,30.38,ENE,67,5.0,18.0,99,0.00,,,0.00,Weather View 32 v70,2014-01-01 05:51:00,
2013-12-31 23:56:00,7.0,6.8,30.38,ENE,67,8.0,18.0,99,0.00,,,0.00,Weather View 32 v70,2014-01-01 05:56:00,